Location: Newark
(7.1028°S, 35.3258°W)
Time: 02:56:54
(UTC+00:00)

X-37B - Pass Details

Date: 03 March 2021
Orbit: 380 x 394 km, 45.0° (Epoch: 07 April)

Event Time Altitude Azimuth Distance (km) Brightness Sun altitude
Rises 21:54:48 0° 233° (SW) 2,264 5.6 -19.3°
Reaches altitude 10° 21:56:56 10° 240° (WSW) 1,409 4.4 -19.8°
Maximum altitude 21:59:57 41° 312° (NW) 578 1.7 -20.5°
Enters shadow 22:00:22 38° 335° (NNW) 605 1.6 -20.6°
